Погода в Оушен-Сити

США     38°19′53″N   75°06′25″W
В апреле 2022 года жителям России запретили посещать сайт meteo.paraplan.net по решению Генеральной прокуратуры. Аудитория сайта уменьшилась в 10 раз. Владельцы сайта не видят смысла в поддержке погодного сервера в таких условиях. Сайт будет закрыт в октябре.
темп.,
°C
ветер,
м/с
пор.,
м/с
влажн.,
%
обл.,
%
осадки,
мм/ч
давл.,
гПа
погр.,
м
25 сентября, вс
вс2523:00+20юз78575 0.0 1014687
02:00+20юз710605 0.0 1013609
05:00+21юз91256100 0.0 1012615
08:00+21юз10145895 0.0 1011767
11:00+21юз101259100 0.0 1010689
14:00+23ююз1113665 0.0 1008376
17:00+23ю111572100 0.0 1006289
20:00+23ююз142073100 0.0 1005432
26 сентября, пн
пн2623:00+22зсз8117489 0.1 1007465
02:00+19зюз412850 0.8 1007429
05:00+20з710870 0.1 1007421
08:00+19з56830 0.1 1009292
11:00+21зюз58660 0.0 1010812
14:00+23юз810550 0.0 1009334
17:00+23ююз66625 0.0 1009117
20:00+22ю810745 0.0 1010311
27 сентября, вт
вт2723:00+22ююз811755 0.1 1010270
02:00+20ссз57523 0.3 1011324
05:00+19сз69505 0.0 1011324
08:00+18сз685599 0.0 1013332
11:00+20зсз57430 0.0 10141198
14:00+22зюз67460 0.0 10131087
17:00+22зюз78470 0.0 1013408
20:00+21зсз35470 0.0 1016229
28 сентября, ср
ср2823:00+18сз59503 0.0 1018356
02:00+17сз8115694 0.0 1019556
05:00+16сз81260100 0.0 1020678
08:00+15сз81063100 0.0 1021728
11:00+17сз6848100 0.0 10221498
14:00+18сз6739100 0.0 10221907
17:00+19ссз8851100 0.0 10211817
20:00+18ссз7960100 0.0 10241176
29 сентября, чт
чт2923:00+17сз7865100 0.0 1025581
02:00+17с99685 0.0 10251017
05:00+16с896686 0.0 1026920
08:00+16с8865100 0.0 10271050
11:00+16ссв10106897 0.0 1027954
14:00+16ссв7765100 0.0 10271027
17:00+17св4557100 0.0 10261228
20:00+18св3452100 0.0 10261284